When you browse on this site, cookies collect data to enhance your experience and personalize the content and advertising you see.
Visit our Privacy Policy to learn more. By continuing to use the site, you agree to this use of cookies and data.
  • In Hungary
  • List of Countries
  • For 7 days
  • Water Temperature
  • Weather Map
  • News
  • Weather Widgets
  • user-avatar
    Login

    Hourly Weather Dharuhera

    Today, 21 August, Wednesday

    Time Temperature Precipitation Wind Pressure Humidity
    00:00 +29°C° 0 mm 0 mps 731 mmHg 57%
    01:00 +29°C° 0 mm 0 mps 730 mmHg 57%
    02:00 +29°C° 0 mm 0 mps 730 mmHg 58%
    03:00 +31°C° 0 mm 1 mps 730 mmHg 58%
    04:00 +30°C° 0 mm 1 mps 730 mmHg 59%
    05:00 +30°C° 0 mm 1 mps 730 mmHg 67%
    06:00 +31°C° 0 mm 2 mps 730 mmHg 63%
    07:00 +32°C° 0 mm 2 mps 731 mmHg 59%
    08:00 +34°C° 0 mm 2 mps 731 mmHg 55%
    09:00 +36°C° 0 mm 3 mps 731 mmHg 49%
    10:00 +38°C° 0 mm 4 mps 731 mmHg 44%
    11:00 +41°C° 0 mm 5 mps 731 mmHg 38%
    12:00 +41°C° 0 mm 5 mps 730 mmHg 35%
    13:00 +42°C° 0 mm 5 mps 730 mmHg 33%
    14:00 +42°C° 0 mm 5 mps 729 mmHg 30%
    15:00 +42°C° 0 mm 5 mps 729 mmHg 31%
    16:00 +41°C° 0 mm 4 mps 728 mmHg 32%
    17:00 +41°C° 0 mm 4 mps 728 mmHg 33%
    18:00 +39°C° 0 mm 3 mps 728 mmHg 36%
    19:00 +37°C° 0 mm 2 mps 728 mmHg 38%
    20:00 +35°C° 0 mm 1 mps 729 mmHg 41%
    21:00 +36°C° 0 mm 2 mps 729 mmHg 44%
    22:00 +35°C° 0 mm 2 mps 729 mmHg 47%
    23:00 +34°C° 0 mm 3 mps 729 mmHg 50%

    Tomorrow, 22 August, Thursday

    Time Temperature Precipitation Wind Pressure Humidity
    00:00 +34°C° 0 mm 3 mps 729 mmHg 51%
    01:00 +32°C° 0 mm 2 mps 729 mmHg 53%
    02:00 +32°C° 0 mm 2 mps 729 mmHg 55%
    03:00 +31°C° 0 mm 2 mps 729 mmHg 56%
    04:00 +31°C° 0 mm 2 mps 729 mmHg 57%
    05:00 +31°C° 0 mm 2 mps 729 mmHg 57%
    06:00 +32°C° 0 mm 2 mps 730 mmHg 55%
    07:00 +33°C° 0 mm 3 mps 730 mmHg 53%
    08:00 +34°C° 0 mm 3 mps 731 mmHg 51%
    09:00 +36°C° 0 mm 4 mps 731 mmHg 46%
    10:00 +38°C° 0 mm 4 mps 731 mmHg 42%
    11:00 +40°C° 0 mm 4 mps 731 mmHg 37%
    12:00 +41°C° 0 mm 4 mps 731 mmHg 34%
    13:00 +42°C° 0 mm 5 mps 730 mmHg 32%
    14:00 +42°C° 0 mm 5 mps 730 mmHg 30%
    15:00 +40°C° 0 mm 5 mps 729 mmHg 39%
    16:00 +38°C° 0 mm 6 mps 729 mmHg 48%
    17:00 +35°C° 0 mm 6 mps 729 mmHg 57%
    18:00 +34°C° 0.2 mm 5 mps 729 mmHg 61%
    19:00 +33°C° 0.2 mm 3 mps 729 mmHg 64%
    20:00 +31°C° 0.2 mm 2 mps 729 mmHg 68%
    21:00 +31°C° 0 mm 2 mps 729 mmHg 69%
    22:00 +30°C° 0 mm 2 mps 729 mmHg 70%
    23:00 +30°C° 0 mm 2 mps 729 mmHg 72%

    Day after tomorrow, 23 August, Friday

    Time Temperature Precipitation Wind Pressure Humidity
    00:00 +30°C° 0 mm 2 mps 729 mmHg 72%
    01:00 +30°C° 0 mm 1 mps 729 mmHg 73%
    02:00 +30°C° 0 mm 1 mps 729 mmHg 73%
    03:00 +29°C° 0 mm 1 mps 729 mmHg 73%
    04:00 +29°C° 0 mm 1 mps 729 mmHg 73%
    05:00 +29°C° 0 mm 1 mps 729 mmHg 73%
    06:00 +30°C° 0 mm 1 mps 730 mmHg 68%
    07:00 +31°C° 0 mm 1 mps 731 mmHg 63%
    08:00 +32°C° 0 mm 1 mps 731 mmHg 58%
    09:00 +35°C° 0 mm 2 mps 731 mmHg 52%
    10:00 +37°C° 0 mm 3 mps 731 mmHg 45%
    11:00 +39°C° 0 mm 3 mps 731 mmHg 39%
    12:00 +41°C° 0 mm 4 mps 730 mmHg 36%
    13:00 +41°C° 0 mm 4 mps 730 mmHg 33%
    14:00 +42°C° 0 mm 5 mps 729 mmHg 30%
    15:00 +42°C° 0 mm 5 mps 728 mmHg 31%
    16:00 +41°C° 0 mm 4 mps 728 mmHg 32%
    17:00 +41°C° 0 mm 4 mps 728 mmHg 33%
    18:00 +38°C° 0 mm 3 mps 728 mmHg 38%
    19:00 +37°C° 0 mm 3 mps 728 mmHg 44%
    20:00 +35°C° 0 mm 3 mps 728 mmHg 50%
    21:00 +35°C° 0 mm 2 mps 729 mmHg 53%
    22:00 +34°C° 0 mm 2 mps 729 mmHg 57%
    23:00 +32°C° 0 mm 2 mps 729 mmHg 61%

    24 August, Saturday

    Time Temperature Precipitation Wind Pressure Humidity
    00:00 +32°C° 0 mm 2 mps 729 mmHg 61%
    01:00 +32°C° 0 mm 2 mps 729 mmHg 62%
    02:00 +32°C° 0 mm 2 mps 729 mmHg 62%
    03:00 +32°C° 0 mm 2 mps 729 mmHg 60%
    04:00 +32°C° 0 mm 2 mps 729 mmHg 59%
    05:00 +31°C° 0 mm 2 mps 729 mmHg 57%
    06:00 +33°C° 0 mm 3 mps 730 mmHg 53%
    07:00 +34°C° 0 mm 4 mps 730 mmHg 49%
    08:00 +35°C° 0 mm 5 mps 730 mmHg 45%
    09:00 +38°C° 0 mm 6 mps 730 mmHg 40%
    10:00 +40°C° 0 mm 6 mps 730 mmHg 35%
    11:00 +42°C° 0 mm 6 mps 731 mmHg 30%
    12:00 +42°C° 0 mm 6 mps 730 mmHg 29%
    13:00 +44°C° 0 mm 6 mps 729 mmHg 28%
    14:00 +44°C° 0 mm 6 mps 729 mmHg 26%
    15:00 +43°C° 0 mm 5 mps 728 mmHg 28%
    16:00 +43°C° 0 mm 4 mps 728 mmHg 29%
    17:00 +42°C° 0 mm 3 mps 727 mmHg 30%
    18:00 +40°C° 0 mm 3 mps 728 mmHg 35%
    19:00 +38°C° 0 mm 3 mps 728 mmHg 40%
    20:00 +36°C° 0 mm 3 mps 728 mmHg 45%
    21:00 +36°C° 0 mm 3 mps 728 mmHg 49%
    22:00 +35°C° 0 mm 3 mps 729 mmHg 53%
    23:00 +34°C° 0 mm 4 mps 729 mmHg 58%

    25 August, Sunday

    Time Temperature Precipitation Wind Pressure Humidity
    00:00 +33°C° 0 mm 3 mps 729 mmHg 59%
    01:00 +33°C° 0 mm 3 mps 729 mmHg 61%
    02:00 +32°C° 0 mm 2 mps 729 mmHg 63%
    03:00 +31°C° 0 mm 2 mps 729 mmHg 66%
    04:00 +31°C° 0 mm 2 mps 729 mmHg 69%
    05:00 +31°C° 0 mm 2 mps 729 mmHg 71%
    06:00 +31°C° 0 mm 2 mps 729 mmHg 68%
    07:00 +32°C° 0 mm 2 mps 730 mmHg 65%
    08:00 +34°C° 0 mm 3 mps 730 mmHg 62%
    09:00 +36°C° 0 mm 2 mps 731 mmHg 55%
    10:00 +37°C° 0 mm 2 mps 731 mmHg 47%
    11:00 +39°C° 0 mm 1 mps 731 mmHg 40%
    12:00 +39°C° 0 mm 2 mps 731 mmHg 38%
    13:00 +40°C° 0 mm 2 mps 730 mmHg 36%
    14:00 +42°C° 0 mm 3 mps 730 mmHg 35%
    15:00 +40°C° 0 mm 4 mps 729 mmHg 42%
    16:00 +37°C° 0 mm 4 mps 729 mmHg 49%
    17:00 +35°C° 0 mm 4 mps 729 mmHg 56%
    18:00 +35°C° 0.1 mm 4 mps 729 mmHg 57%
    19:00 +35°C° 0.1 mm 3 mps 729 mmHg 58%
    20:00 +34°C° 0.1 mm 3 mps 730 mmHg 58%
    21:00 +34°C° 0 mm 3 mps 730 mmHg 61%
    22:00 +33°C° 0 mm 3 mps 730 mmHg 63%
    23:00 +33°C° 0 mm 3 mps 730 mmHg 65%

    26 August, Monday

    Time Temperature Precipitation Wind Pressure Humidity
    00:00 +33°C° 0 mm 3 mps 730 mmHg 67%
    01:00 +31°C° 0 mm 2 mps 730 mmHg 69%
    02:00 +31°C° 0 mm 2 mps 729 mmHg 70%
    03:00 +31°C° 0 mm 1 mps 730 mmHg 71%
    04:00 +31°C° 0 mm 1 mps 730 mmHg 71%
    05:00 +31°C° 0 mm 1 mps 730 mmHg 72%
    06:00 +31°C° 0 mm 1 mps 730 mmHg 71%
    07:00 +31°C° 0 mm 1 mps 731 mmHg 70%
    08:00 +32°C° 0 mm 1 mps 731 mmHg 69%
    09:00 +34°C° 0.1 mm 2 mps 731 mmHg 63%
    10:00 +35°C° 0.1 mm 3 mps 731 mmHg 57%
    11:00 +36°C° 0.1 mm 3 mps 731 mmHg 51%
    12:00 +37°C° 0 mm 4 mps 731 mmHg 47%
    13:00 +38°C° 0 mm 4 mps 730 mmHg 44%
    14:00 +41°C° 0 mm 4 mps 729 mmHg 41%
    15:00 +40°C° 0 mm 4 mps 729 mmHg 42%
    16:00 +39°C° 0 mm 3 mps 729 mmHg 43%
    17:00 +38°C° 0 mm 3 mps 728 mmHg 44%
    18:00 +37°C° 0.1 mm 3 mps 728 mmHg 47%
    19:00 +36°C° 0.1 mm 2 mps 728 mmHg 51%
    20:00 +35°C° 0.1 mm 2 mps 729 mmHg 54%
    21:00 +34°C° 0.3 mm 2 mps 729 mmHg 58%
    22:00 +33°C° 0.3 mm 3 mps 729 mmHg 62%
    23:00 +33°C° 0.3 mm 4 mps 730 mmHg 66%
    Show more